Time,TemperatureF,DewpointF,PressureIn,WindDirection,WindDirectionDegrees,WindSpeedMPH,WindSpeedGustMPH,Humidity,HourlyPrecipIn,Conditions,Clouds,dailyrainin,SolarRadiationWatts/m^2,SoftwareType,DateUTC
2014-08-21 00:05:00,59.2,53.7,30.02,SSE,161,0.0,0.0,82,0.00,,,0.00,0,Wunderground v.1.15,2014-08-21 07:05:00,
2014-08-21 00:10:00,59.2,53.7,30.02,SSE,161,1.0,1.0,82,0.00,,,0.00,0,Wunderground v.1.15,2014-08-21 07:10:00,
2014-08-21 00:20:00,59.0,53.8,30.02,SE,140,0.0,0.0,83,0.00,,,0.00,0,Wunderground v.1.15,2014-08-21 07:20:00,
2014-08-21 00:30:00,58.9,53.7,30.02,SE,140,0.0,0.0,83,0.00,,,0.00,0,Wunderground v.1.15,2014-08-21 07:30:00,
2014-08-21 00:40:00,58.6,53.5,30.02,SE,140,0.0,0.0,83,0.00,,,0.00,0,Wunderground v.1.15,2014-08-21 07:40:00,
2014-08-21 01:05:00,58.6,53.1,30.02,SE,139,0.0,0.0,82,0.00,,,0.00,0,Wunderground v.1.15,2014-08-21 08:05:00,
2014-08-21 01:10:00,58.4,52.9,30.02,South,180,1.0,1.0,82,0.00,,,0.00,0,Wunderground v.1.15,2014-08-21 08:10:00,
2014-08-21 01:20:00,58.5,53.0,30.02,SSW,200,1.0,2.0,82,0.00,,,0.00,0,Wunderground v.1.15,2014-08-21 08:20:00,
2014-08-21 01:30:00,58.6,53.1,30.03,SE,130,2.0,2.0,82,0.00,,,0.00,0,Wunderground v.1.15,2014-08-21 08:30:00,
2014-08-21 01:40:00,58.4,52.9,30.03,SE,130,1.0,2.0,82,0.00,,,0.00,0,Wunderground v.1.15,2014-08-21 08:40:00,
2014-08-21 01:50:00,58.0,52.9,30.03,SE,130,0.0,0.0,83,0.00,,,0.00,0,Wunderground v.1.15,2014-08-21 08:50:00,
2014-08-21 02:05:00,57.3,52.5,30.03,SE,130,0.0,0.0,84,0.00,,,0.00,0,Wunderground v.1.15,2014-08-21 09:05:00,
2014-08-21 02:10:00,57.1,52.6,30.03,SE,130,0.0,0.0,85,0.00,,,0.00,0,Wunderground v.1.15,2014-08-21 09:10:00,
2014-08-21 02:20:00,56.8,52.3,30.03,SE,130,0.0,1.0,85,0.00,,,0.00,0,Wunderground v.1.15,2014-08-21 09:20:00,
2014-08-21 02:30:00,56.6,52.5,30.03,SE,130,0.0,0.0,86,0.00,,,0.00,0,Wunderground v.1.15,2014-08-21 09:30:00,
2014-08-21 02:40:00,56.4,52.3,30.03,SE,130,0.0,0.0,86,0.00,,,0.00,0,Wunderground v.1.15,2014-08-21 09:40:00,
2014-08-21 02:50:00,56.2,52.1,30.03,SE,130,0.0,0.0,86,0.00,,,0.00,0,Wunderground v.1.15,2014-08-21 09:50:00,
2014-08-21 03:05:00,56.2,52.1,30.03,SE,130,0.0,0.0,86,0.00,,,0.00,0,Wunderground v.1.15,2014-08-21 10:05:00,
2014-08-21 03:20:00,56.5,52.0,30.03,SE,130,1.0,2.0,85,0.00,,,0.00,0,Wunderground v.1.15,2014-08-21 10:20:00,
2014-08-21 03:30:00,56.6,52.1,30.04,South,182,1.0,1.0,85,0.00,,,0.00,0,Wunderground v.1.15,2014-08-21 10:30:00,
2014-08-21 03:40:00,56.9,52.1,30.04,South,173,2.0,2.0,84,0.00,,,0.00,0,Wunderground v.1.15,2014-08-21 10:40:00,
2014-08-21 03:50:00,57.5,52.4,30.03,South,187,2.0,2.0,83,0.00,,,0.00,0,Wunderground v.1.15,2014-08-21 10:50:00,
2014-08-21 04:05:00,57.9,52.4,30.03,SSE,161,3.0,3.0,82,0.00,,,0.00,0,Wunderground v.1.15,2014-08-21 11:05:00,
2014-08-21 04:20:00,58.4,51.9,30.03,South,179,3.0,3.0,79,0.00,,,0.00,0,Wunderground v.1.15,2014-08-21 11:20:00,
2014-08-21 04:30:00,58.3,52.2,30.03,SSE,161,3.0,3.0,80,0.00,,,0.00,0,Wunderground v.1.15,2014-08-21 11:30:00,
2014-08-21 04:40:00,58.1,52.0,30.03,SE,140,3.0,3.0,80,0.00,,,0.00,0,Wunderground v.1.15,2014-08-21 11:40:00,
2014-08-21 04:50:00,58.2,51.7,30.03,ESE,123,3.0,3.0,79,0.00,,,0.00,0,Wunderground v.1.15,2014-08-21 11:50:00,
2014-08-21 05:05:00,57.7,51.9,30.03,SE,143,1.0,1.0,81,0.00,,,0.00,0,Wunderground v.1.15,2014-08-21 12:05:00,
2014-08-21 05:10:00,57.5,51.7,30.03,SE,134,2.0,2.0,81,0.00,,,0.00,0,Wunderground v.1.15,2014-08-21 12:10:00,
2014-08-21 05:20:00,57.4,51.6,30.03,SSE,160,3.0,3.0,81,0.00,,,0.00,0,Wunderground v.1.15,2014-08-21 12:20:00,
2014-08-21 05:30:00,57.4,51.6,30.03,South,183,3.0,3.0,81,0.00,,,0.00,0,Wunderground v.1.15,2014-08-21 12:30:00,
2014-08-21 05:40:00,57.6,51.8,30.03,SE,132,2.0,2.0,81,0.00,,,0.00,0,Wunderground v.1.15,2014-08-21 12:40:00,
2014-08-21 05:50:00,57.5,51.7,30.04,South,170,2.0,2.0,81,0.00,,,0.00,0,Wunderground v.1.15,2014-08-21 12:50:00,
2014-08-21 06:05:00,57.5,51.7,30.04,SSE,163,2.0,5.0,81,0.00,,,0.00,0,Wunderground v.1.15,2014-08-21 13:05:00,
2014-08-21 06:10:00,57.3,51.5,30.04,SSE,161,3.0,5.0,81,0.00,,,0.00,0,Wunderground v.1.15,2014-08-21 13:10:00,
2014-08-21 06:20:00,57.1,51.7,30.04,South,180,3.0,3.0,82,0.00,,,0.00,5,Wunderground v.1.15,2014-08-21 13:20:00,
2014-08-21 06:30:00,57.0,51.6,30.05,SE,139,2.0,2.0,82,0.00,,,0.00,12,Wunderground v.1.15,2014-08-21 13:30:00,
2014-08-21 06:40:00,56.9,51.5,30.05,SE,134,2.0,4.0,82,0.00,,,0.00,14,Wunderground v.1.15,2014-08-21 13:40:00,
2014-08-21 06:50:00,56.9,51.5,30.04,SSE,156,3.0,5.0,82,0.00,,,0.00,19,Wunderground v.1.15,2014-08-21 13:50:00,
2014-08-21 07:05:00,57.1,51.7,30.05,SSE,148,4.0,4.0,82,0.00,,,0.00,30,Wunderground v.1.15,2014-08-21 14:05:00,
2014-08-21 07:10:00,57.3,51.9,30.05,South,180,3.0,4.0,82,0.00,,,0.00,39,Wunderground v.1.15,2014-08-21 14:10:00,
2014-08-21 07:20:00,57.5,51.7,30.05,South,171,3.0,3.0,81,0.00,,,0.00,51,Wunderground v.1.15,2014-08-21 14:20:00,
2014-08-21 07:30:00,57.6,51.8,30.05,South,186,4.0,4.0,81,0.00,,,0.00,49,Wunderground v.1.15,2014-08-21 14:30:00,
2014-08-21 07:40:00,57.7,51.9,30.05,ESE,112,4.0,4.0,81,0.00,,,0.00,42,Wunderground v.1.15,2014-08-21 14:40:00,
2014-08-21 07:50:00,57.6,51.5,30.06,SSE,163,3.0,3.0,80,0.00,,,0.00,54,Wunderground v.1.15,2014-08-21 14:50:00,
2014-08-21 08:10:00,57.7,51.2,30.06,SE,142,4.0,5.0,79,0.00,,,0.00,81,Wunderground v.1.15,2014-08-21 15:10:00,
2014-08-21 08:20:00,57.7,51.6,30.06,SSE,159,5.0,5.0,80,0.00,,,0.00,111,Wunderground v.1.15,2014-08-21 15:20:00,
2014-08-21 08:30:00,57.9,51.4,30.05,SE,146,4.0,4.0,79,0.00,,,0.00,128,Wunderground v.1.15,2014-08-21 15:30:00,
2014-08-21 08:40:00,58.2,51.4,30.06,SSW,206,4.0,4.0,78,0.00,,,0.00,141,Wunderground v.1.15,2014-08-21 15:40:00,
2014-08-21 08:50:00,58.3,51.5,30.06,ESE,117,4.0,5.0,78,0.00,,,0.00,151,Wunderground v.1.15,2014-08-21 15:50:00,
2014-08-21 09:05:00,58.4,51.6,30.06,SE,137,4.0,4.0,78,0.00,,,0.00,185,Wunderground v.1.15,2014-08-21 16:05:00,
2014-08-21 09:10:00,58.6,51.8,30.06,SE,134,5.0,5.0,78,0.00,,,0.00,202,Wunderground v.1.15,2014-08-21 16:10:00,